When you browse on this site, cookies collect data to enhance your experience and personalize the content and advertising you see.
Visit our Privacy Policy to learn more. By continuing to use the site, you agree to this use of cookies and data.
  • In Switzerland
  • List of Countries
  • For 7 days
  • Water Temperature
  • Weather Map
  • Weather Widgets
  • user-avatar
    Login

    Hourly Weather Kalgoorlie

    Today, 18 October, Friday

    Time Temperature Precipitation Wind Pressure Humidity
    00:00 +16°C° 0 mm 7 mps 730 mmHg 43%
    01:00 +14°C° 0 mm 7 mps 730 mmHg 53%
    02:00 +12°C° 0 mm 7 mps 730 mmHg 63%
    03:00 +11°C° 0 mm 6 mps 731 mmHg 67%
    04:00 +11°C° 0 mm 6 mps 731 mmHg 72%
    05:00 +10°C° 0 mm 6 mps 731 mmHg 77%
    06:00 +11°C° 0 mm 6 mps 732 mmHg 73%
    07:00 +14°C° 0 mm 7 mps 732 mmHg 69%
    08:00 +15°C° 0 mm 7 mps 733 mmHg 64%
    09:00 +19°C° 0 mm 6 mps 733 mmHg 54%
    10:00 +21°C° 0 mm 6 mps 732 mmHg 45%
    11:00 +23°C° 0 mm 5 mps 732 mmHg 35%
    12:00 +25°C° 0 mm 4 mps 732 mmHg 31%
    13:00 +27°C° 0 mm 3 mps 731 mmHg 27%
    14:00 +28°C° 0 mm 3 mps 730 mmHg 22%
    15:00 +28°C° 0 mm 3 mps 731 mmHg 22%
    16:00 +28°C° 0 mm 4 mps 731 mmHg 22%
    17:00 +28°C° 0 mm 4 mps 731 mmHg 22%
    18:00 +26°C° 0 mm 6 mps 731 mmHg 26%
    19:00 +23°C° 0 mm 9 mps 732 mmHg 30%
    20:00 +19°C° 0 mm 11 mps 732 mmHg 34%
    21:00 +17°C° 0 mm 11 mps 732 mmHg 43%
    22:00 +14°C° 0 mm 10 mps 732 mmHg 52%
    23:00 +12°C° 0 mm 10 mps 733 mmHg 61%

    Tomorrow, 19 October, Saturday

    Time Temperature Precipitation Wind Pressure Humidity
    00:00 +11°C° 0 mm 10 mps 733 mmHg 64%
    01:00 +10°C° 0 mm 9 mps 733 mmHg 67%
    02:00 +10°C° 0 mm 8 mps 733 mmHg 70%
    03:00 +9°C° 0 mm 8 mps 733 mmHg 72%
    04:00 +9°C° 0 mm 7 mps 734 mmHg 74%
    05:00 +9°C° 0 mm 7 mps 734 mmHg 76%
    06:00 +10°C° 0 mm 7 mps 734 mmHg 69%
    07:00 +12°C° 0 mm 8 mps 734 mmHg 61%
    08:00 +15°C° 0 mm 8 mps 734 mmHg 54%
    09:00 +18°C° 0 mm 8 mps 734 mmHg 45%
    10:00 +22°C° 0 mm 9 mps 734 mmHg 36%
    11:00 +27°C° 0 mm 9 mps 734 mmHg 26%
    12:00 +28°C° 0 mm 9 mps 733 mmHg 24%
    13:00 +29°C° 0 mm 9 mps 732 mmHg 21%
    14:00 +32°C° 0 mm 9 mps 731 mmHg 19%
    15:00 +31°C° 0 mm 8 mps 731 mmHg 20%
    16:00 +31°C° 0 mm 8 mps 731 mmHg 20%
    17:00 +29°C° 0 mm 8 mps 731 mmHg 21%
    18:00 +28°C° 0 mm 8 mps 731 mmHg 23%
    19:00 +26°C° 0 mm 8 mps 731 mmHg 25%
    20:00 +24°C° 0 mm 8 mps 731 mmHg 26%
    21:00 +23°C° 0 mm 8 mps 731 mmHg 26%
    22:00 +22°C° 0 mm 9 mps 731 mmHg 25%
    23:00 +21°C° 0 mm 9 mps 731 mmHg 25%

    Day after tomorrow, 20 October, Sunday

    Time Temperature Precipitation Wind Pressure Humidity
    00:00 +20°C° 0 mm 8 mps 731 mmHg 28%
    01:00 +20°C° 0 mm 8 mps 731 mmHg 31%
    02:00 +18°C° 0 mm 7 mps 731 mmHg 34%
    03:00 +18°C° 0 mm 7 mps 730 mmHg 32%
    04:00 +18°C° 0 mm 7 mps 730 mmHg 31%
    05:00 +20°C° 0 mm 6 mps 730 mmHg 29%
    06:00 +22°C° 0 mm 7 mps 730 mmHg 28%
    07:00 +24°C° 0 mm 7 mps 731 mmHg 27%
    08:00 +28°C° 0 mm 7 mps 731 mmHg 26%
    09:00 +31°C° 0 mm 8 mps 731 mmHg 23%
    10:00 +33°C° 0 mm 10 mps 731 mmHg 20%
    11:00 +37°C° 0 mm 11 mps 731 mmHg 18%
    12:00 +38°C° 0 mm 10 mps 730 mmHg 16%
    13:00 +38°C° 0 mm 9 mps 729 mmHg 15%
    14:00 +39°C° 0 mm 8 mps 728 mmHg 13%
    15:00 +39°C° 0 mm 8 mps 728 mmHg 13%
    16:00 +39°C° 0 mm 7 mps 728 mmHg 13%
    17:00 +38°C° 0 mm 6 mps 728 mmHg 12%
    18:00 +34°C° 0 mm 6 mps 728 mmHg 21%
    19:00 +30°C° 0 mm 7 mps 729 mmHg 29%
    20:00 +27°C° 0 mm 7 mps 729 mmHg 37%
    21:00 +24°C° 0 mm 7 mps 730 mmHg 43%
    22:00 +23°C° 0 mm 7 mps 730 mmHg 50%
    23:00 +22°C° 0 mm 7 mps 731 mmHg 56%

    21 October, Monday

    Time Temperature Precipitation Wind Pressure Humidity
    00:00 +21°C° 0 mm 6 mps 730 mmHg 60%
    01:00 +21°C° 0 mm 6 mps 730 mmHg 65%
    02:00 +20°C° 0 mm 5 mps 729 mmHg 69%
    03:00 +19°C° 0 mm 4 mps 729 mmHg 72%
    04:00 +19°C° 0 mm 4 mps 729 mmHg 74%
    05:00 +18°C° 0 mm 3 mps 729 mmHg 77%
    06:00 +20°C° 0 mm 3 mps 730 mmHg 67%
    07:00 +22°C° 0 mm 3 mps 730 mmHg 57%
    08:00 +26°C° 0 mm 4 mps 730 mmHg 47%
    09:00 +29°C° 0 mm 4 mps 730 mmHg 38%
    10:00 +32°C° 0 mm 5 mps 730 mmHg 28%
    11:00 +35°C° 0 mm 5 mps 730 mmHg 18%
    12:00 +36°C° 0 mm 5 mps 729 mmHg 16%
    13:00 +38°C° 0 mm 6 mps 728 mmHg 13%
    14:00 +39°C° 0 mm 6 mps 728 mmHg 11%
    15:00 +39°C° 0 mm 7 mps 728 mmHg 11%
    16:00 +38°C° 0 mm 7 mps 728 mmHg 11%
    17:00 +36°C° 0 mm 7 mps 727 mmHg 11%
    18:00 +34°C° 0 mm 7 mps 728 mmHg 14%
    19:00 +30°C° 0 mm 7 mps 729 mmHg 17%
    20:00 +27°C° 0 mm 7 mps 729 mmHg 20%
    21:00 +26°C° 0 mm 6 mps 729 mmHg 33%
    22:00 +23°C° 0 mm 6 mps 730 mmHg 45%
    23:00 +21°C° 0 mm 6 mps 730 mmHg 57%

    22 October, Tuesday

    Time Temperature Precipitation Wind Pressure Humidity
    00:00 +20°C° 0 mm 5 mps 730 mmHg 60%
    01:00 +19°C° 0 mm 5 mps 729 mmHg 63%
    02:00 +17°C° 0 mm 5 mps 729 mmHg 65%
    03:00 +17°C° 0 mm 4 mps 729 mmHg 68%
    04:00 +15°C° 0 mm 4 mps 729 mmHg 72%
    05:00 +15°C° 0 mm 4 mps 729 mmHg 75%
    06:00 +17°C° 0 mm 4 mps 730 mmHg 66%
    07:00 +19°C° 0 mm 5 mps 730 mmHg 58%
    08:00 +21°C° 0 mm 5 mps 730 mmHg 49%
    09:00 +23°C° 0 mm 4 mps 730 mmHg 43%
    10:00 +27°C° 0 mm 4 mps 730 mmHg 38%
    11:00 +29°C° 0 mm 3 mps 730 mmHg 32%
    12:00 +30°C° 0 mm 3 mps 729 mmHg 28%
    13:00 +31°C° 0 mm 2 mps 728 mmHg 23%
    14:00 +33°C° 0 mm 1 mps 728 mmHg 19%
    15:00 +33°C° 0 mm 1 mps 727 mmHg 18%
    16:00 +34°C° 0 mm 2 mps 727 mmHg 17%
    17:00 +34°C° 0 mm 2 mps 727 mmHg 16%
    18:00 +31°C° 0 mm 2 mps 727 mmHg 19%
    19:00 +28°C° 0 mm 3 mps 727 mmHg 22%
    20:00 +26°C° 0 mm 3 mps 727 mmHg 25%
    21:00 +25°C° 0 mm 4 mps 727 mmHg 32%
    22:00 +22°C° 0 mm 6 mps 727 mmHg 39%
    23:00 +20°C° 0 mm 7 mps 727 mmHg 46%

    23 October, Wednesday

    Time Temperature Precipitation Wind Pressure Humidity
    00:00 +19°C° 0 mm 6 mps 727 mmHg 51%
    01:00 +18°C° 0 mm 4 mps 727 mmHg 55%
    02:00 +17°C° 0 mm 2 mps 727 mmHg 59%
    03:00 +16°C° 0 mm 2 mps 727 mmHg 64%
    04:00 +16°C° 0 mm 1 mps 727 mmHg 68%
    05:00 +15°C° 0 mm 1 mps 727 mmHg 72%
    06:00 +18°C° 0 mm 3 mps 727 mmHg 61%
    07:00 +20°C° 0 mm 5 mps 728 mmHg 50%
    08:00 +23°C° 0 mm 7 mps 728 mmHg 40%
    09:00 +26°C° 0 mm 7 mps 728 mmHg 34%
    10:00 +28°C° 0 mm 7 mps 728 mmHg 28%
    11:00 +30°C° 0 mm 7 mps 728 mmHg 22%
    12:00 +32°C° 0 mm 8 mps 728 mmHg 21%
    13:00 +32°C° 0 mm 8 mps 727 mmHg 19%
    14:00 +33°C° 0 mm 9 mps 727 mmHg 18%
    15:00 +32°C° 0 mm 8 mps 727 mmHg 19%
    16:00 +31°C° 0 mm 8 mps 727 mmHg 20%
    17:00 +29°C° 0 mm 8 mps 727 mmHg 22%
    18:00 +27°C° 0 mm 7 mps 728 mmHg 28%
    19:00 +23°C° 0 mm 6 mps 729 mmHg 34%
    20:00 +21°C° 0 mm 6 mps 729 mmHg 40%
    21:00 +18°C° 0 mm 7 mps 730 mmHg 49%
    22:00 +16°C° 0 mm 8 mps 730 mmHg 57%
    23:00 +13°C° 0 mm 9 mps 730 mmHg 65%
    Show more